New Orleans Lakefront, LA

8:14 AM CST on November 18, 2019 (GMT -0600)
Lakefront

Weather History for KNEW - September, 2019

Change the Weather History Date:

Friday, September 13, 2019

  Actual Average Record
Temperature  
Mean Temperature 88 °F 81 °F  
Max Temperature 98 °F 88 °F 98 °F (2019)
Min Temperature 77 °F 73 °F 57 °F (1969)
Degree Days  
Heating Degree Days 0 0  
Month to date heating degree days 0 0  
Since 1 July heating degree days 0 0  
Cooling Degree Days 23 16  
Month to date cooling degree days 290 216  
Year to date cooling degree days 2931 2462  
Growing Degree Days 38 (Base 50)    
Moisture  
Dew Point 71 °F    
Average Humidity 59    
Maximum Humidity 85    
Minimum Humidity 33    
Precipitation  
Precipitation 0.00 in 0.18 in 4.74 in (1948)
Month to date precipitation 0.02 2.46  
Year to date precipitation 46.78 46.67  
Snow  
Snow 0.00 in - - ()
Month to date snowfall 0.0  
Since 1 July snowfall 0.0  
Since 1 September snowfall 0.0  
Snow Depth 0.00 in    
Sea Level Pressure  
Sea Level Pressure 30.05 in    
Wind  
Wind Speed 6 mph (ENE)    
Max Wind Speed 17 mph    
Max Gust Speed 22 mph    
Visibility 9 miles    
Events      
T = Trace of Precipitation, MM = Missing Value Source: NWS Daily Summary

Daily Weather History Graph

Daily Weather History Graph

Search for Another Location

Airport or City:

Astronomy

Sep. 13, 2019 Rise Set
Actual Time 6:43 AM CDT 7:08 PM CDT
Civil Twilight 6:19 AM CDT 7:32 PM CDT
Nautical Twilight 5:51 AM CDT 8:00 PM CDT
Astronomical Twilight 5:22 AM CDT 8:28 PM CDT
Moon 7:16 PM CDT (9/13) 6:07 AM CDT (9/13)
Length of Visible Light 13h 12m
Length of Day
12h 24m
Full, 100% of the Moon is Illuminated
Sep 13
Full
Sep 13
Full
Sep 21
Last Quarter
Sep 28
New
Oct 5
First Quarter

Hourly Weather History & Observations

Time (CDT) Temp. Heat Index Dew Point Humidity Pressure Visibility Wind Dir Wind Speed Gust Speed Precip Events Conditions
12:53 AM 84.0 °F 91.2 °F 73.9 °F 72% 30.05 in 9.0 mi Calm Calm - N/A   Partly Cloudy
1:53 AM 84.9 °F 92.1 °F 73.9 °F 69% 30.05 in 9.0 mi NE 3.5 mph - N/A   Clear
2:53 AM 84.0 °F 92.6 °F 75.9 °F 76% 30.04 in 9.0 mi North 8.1 mph - N/A   Scattered Clouds
3:53 AM 84.9 °F 94.1 °F 75.9 °F 74% 30.04 in 9.0 mi NNE 6.9 mph - N/A   Clear
4:53 AM 84.0 °F 92.6 °F 75.9 °F 76% 30.04 in 9.0 mi NE 8.1 mph - N/A   Clear
5:53 AM 84.0 °F 91.9 °F 75.0 °F 74% 30.05 in 9.0 mi NNE 9.2 mph - N/A   Clear
6:53 AM 84.0 °F 91.2 °F 73.9 °F 72% 30.06 in 8.0 mi NNE 9.2 mph - N/A   Clear
7:53 AM 84.9 °F 90.7 °F 72.0 °F 65% 30.07 in 8.0 mi NE 6.9 mph - N/A   Clear
8:53 AM 86.0 °F 93.0 °F 73.0 °F 65% 30.09 in 8.0 mi NE 5.8 mph - N/A   Clear
9:53 AM 87.1 °F 94.5 °F 73.0 °F 63% 30.09 in 8.0 mi NNE 6.9 mph - N/A   Clear
10:53 AM 89.1 °F 98.0 °F 73.9 °F 61% 30.09 in 8.0 mi NNE 6.9 mph - N/A   Clear
11:53 AM 91.9 °F 100.7 °F 73.0 °F 54% 30.08 in 9.0 mi NNE 6.9 mph - N/A   Clear
1:53 PM 93.9 °F 96.1 °F 64.9 °F 38% 30.05 in 10.0 mi East 12.7 mph - N/A   Partly Cloudy
2:53 PM 93.9 °F 95.2 °F 63.0 °F 36% 30.04 in 10.0 mi East 15.0 mph - N/A   Clear
3:53 PM 93.9 °F 94.8 °F 62.1 °F 35% 30.01 in 10.0 mi East 9.2 mph - N/A   Clear
4:53 PM 91.9 °F 95.9 °F 68.0 °F 45% 30.01 in 10.0 mi ESE 11.5 mph - N/A   Clear
5:53 PM 91.0 °F 93.8 °F 66.0 °F 44% 30.01 in 10.0 mi ESE 13.8 mph - N/A   Clear
6:53 PM 89.1 °F 92.1 °F 66.9 °F 48% 30.01 in 10.0 mi SE 9.2 mph - N/A   Clear
7:53 PM 86.0 °F 89.4 °F 68.0 °F 55% 30.01 in 10.0 mi SSE 4.6 mph - N/A   Clear
8:53 PM 84.9 °F 88.8 °F 69.1 °F 59% 30.04 in 10.0 mi SE 4.6 mph - N/A   Partly Cloudy
9:53 PM 84.0 °F 88.4 °F 70.0 °F 63% 30.06 in 10.0 mi SE 4.6 mph - N/A   Clear
10:53 PM 84.0 °F 89.6 °F 72.0 °F 67% 30.06 in 10.0 mi ESE 4.6 mph - N/A   Partly Cloudy
11:53 PM 84.0 °F 91.2 °F 73.9 °F 72% 30.06 in 10.0 mi ESE 4.6 mph - N/A   Scattered Clouds